Weather History for Watsonville, CA

Change the Weather History Date:

Tuesday, May 6, 2014

  Actual Average Record
Temperature  
Mean Temperature 58 °F 58 °F  
Max Temperature 71 °F 69 °F 80 °F (2012)
Min Temperature 44 °F 47 °F 43 °F (2010)
Degree Days  
Heating Degree Days 7    
Month to date heating degree days 25  
Since 1 July heating degree days 2224  
Cooling Degree Days 0    
Month to date cooling degree days 8  
Year to date cooling degree days 14  
Growing Degree Days 8 (Base 50)    
Moisture  
Dew Point 44 °F    
Average Humidity 60    
Maximum Humidity 83    
Minimum Humidity 37    
Precipitation  
Precipitation 0.00 in - 0.22 in (1983)
Month to date precipitation 0.00  
Year to date precipitation 8.14  
Since 1 July precipitation 9.21  
Sea Level Pressure  
Sea Level Pressure 29.93 in    
Wind  
Wind Speed 5 mph (SW)    
Max Wind Speed 16 mph    
Max Gust Speed 23 mph    
Visibility 10 miles    
Events      
T = Trace of Precipitation, MM = Missing Value Source: NWS Daily Summary

Daily Weather History Graph

Daily Weather History Graph

Search for Another Location

Airport:

Trip Planner

Search our weather history database for the weather conditions in past years. The results will help you decide how hot, cold, wet, or windy it might be!

Date:

Astronomy

May. 06, 2014 Rise Set
Actual Time 6:07 AM PDT 8:00 PM PDT
Civil Twilight 5:39 AM PDT 8:28 PM PDT
Nautical Twilight 5:04 AM PDT 9:03 PM PDT
Astronomical Twilight 4:28 AM PDT 9:40 PM PDT
Moon 12:26 PM PDT (5/6) 1:24 AM PDT (5/6)
Length of Visible Light 14h 49m
Length of Day
13h 53m
Waxing Crescent, 47% of the Moon is Illuminated
May 6
Waxing Crescent
May 6
First Quarter
May 14
Full
May 21
Last Quarter
May 28
New

Hourly Weather History & Observations

Time (PDT) Temp. Windchill Dew Point Humidity Pressure Visibility Wind Dir Wind Speed Gust Speed Precip Events Conditions
12:53 AM 51.1 °F - 42.1 °F 71% 29.97 in 10.0 mi West 5.8 mph - N/A   Clear
4:53 AM 45.0 °F - 39.9 °F 82% 29.95 in 10.0 mi Calm Calm - N/A   Clear
5:53 AM 45.0 °F 43.5 °F 39.0 °F 80% 29.94 in 10.0 mi WSW 3.5 mph - N/A   Clear
7:53 AM 52.0 °F - 43.0 °F 71% 29.96 in 10.0 mi Calm Calm - N/A   Clear
8:53 AM 55.9 °F - 43.0 °F 62% 29.95 in 10.0 mi Calm Calm - N/A   Clear
9:53 AM 60.1 °F - 43.0 °F 53% 29.95 in 10.0 mi Calm Calm - N/A   Clear
10:53 AM 61.0 °F - 46.0 °F 58% 29.95 in 10.0 mi South 8.1 mph - N/A   Clear
11:53 AM 62.1 °F - 45.0 °F 53% 29.95 in 10.0 mi South 9.2 mph - N/A   Clear
12:53 PM 62.1 °F - 44.1 °F 52% 29.94 in 10.0 mi Variable 5.8 mph - N/A   Clear
1:53 PM 66.0 °F - 46.9 °F 50% 29.92 in 10.0 mi SSW 5.8 mph - N/A   Clear
2:53 PM 66.9 °F - 48.0 °F 51% 29.90 in 10.0 mi WSW 10.4 mph - N/A   Clear
3:53 PM 70.0 °F - 48.0 °F 46% 29.88 in 10.0 mi SW 9.2 mph - N/A   Partly Cloudy
4:53 PM 70.0 °F - 44.1 °F 39% 29.88 in 10.0 mi WSW 15.0 mph - N/A   Clear
5:53 PM 69.1 °F - 43.0 °F 39% 29.88 in 10.0 mi WSW 15.0 mph 18.4 mph N/A   Clear
6:53 PM 64.0 °F - 43.0 °F 46% 29.89 in 10.0 mi WSW 13.8 mph 20.7 mph N/A   Clear
7:53 PM 59.0 °F - 42.1 °F 53% 29.89 in 10.0 mi WSW 10.4 mph - N/A   Clear
8:53 PM 57.0 °F - 44.1 °F 62% 29.91 in 10.0 mi Calm Calm - N/A   Clear
9:53 PM 54.0 °F - 46.0 °F 75% 29.94 in 10.0 mi East 8.1 mph - N/A   Clear
10:53 PM 53.1 °F - 46.9 °F 80% 29.95 in 10.0 mi NE 5.8 mph - N/A   Clear
11:53 PM 52.0 °F - 46.9 °F 83% 29.95 in 10.0 mi NE 5.8 mph - N/A   Clear